Wind_Speed
14 10 16 12 10 11 12 14 15 15 15 14 12 12 10 9 8 9 10 10 9 9 10 10 11 11 10 9 8 6 6 5 6 9 11 14 16 17 17 18 19 19 19
14 15 15 11 10 10 12 13 14 15 14 13 12 11 11 10 9 9 10 10 10 10 10 11 11 10 9 7 6 5 5 5 5 8 13 16 17 18 18 18 19 20 20
14 17 15 12 11 10 11 12 13 14 13 12 11 11 11 11 10 8 10 10 9 9 9 9 8 9 10 9 7 7 6 7 10 12 15 17 19 18 18 20 20 19 19
17 18 15 10 9 10 11 12 12 12 12 11 11 11 11 11 10 9 9 10 9 9 8 8 7 8 9 8 7 8 10 12 13 14 16 18 20 18 19 19 19 19 19
19 15 12 9 9 11 12 12 12 12 11 11 11 11 11 11 11 10 9 10 9 8 7 6 6 8 8 8 7 9 11 12 13 15 16 16 20 17 19 19 18 17 16
17 13 11 10 10 10 11 12 12 11 11 11 11 11 11 12 12 11 11 11 9 8 7 8 8 8 7 7 7 9 11 12 12 13 16 17 19 19 19 17 16 14 14
17 13 12 10 9 9 10 10 11 11 11 10 10 11 12 13 13 12 12 12 11 10 9 9 8 8 6 6 7 9 11 13 10 13 15 17 19 19 16 14 12 10 13
15 15 14 12 11 10 9 10 10 10 10 10 10 11 12 13 13 13 13 13 12 11 11 9 9 7 6 6 6 9 12 13 12 13 14 13 16 13 14 12 9 7 7
17 17 17 15 13 11 10 10 10 11 11 11 11 11 12 13 14 15 15 15 14 13 12 11 10 9 8 8 10 9 13 12 10 11 13 12 10 6 11 10 9 8 9
20 19 19 18 16 13 11 11 12 12 12 12 12 13 13 13 15 16 17 17 16 14 13 13 13 8 10 12 9 8 14 14 9 8 20 15 11 8 11 10 9 8 11
23 21 21 20 19 16 13 13 13 14 14 14 14 14 14 15 16 16 18 18 18 16 15 16 16 12 11 14 10 11 16 16 11 11 11 13 12 8 10 12 12 12 15
25 25 22 22 21 19 17 16 15 15 16 16 16 16 16 16 16 17 19 19 21 18 19 17 16 15 14 17 13 13 18 16 14 16 13 14 14 9 10 12 16 15 14
25 24 24 23 22 21 20 18 17 17 17 17 17 17 17 18 18 19 20 21 25 21 23 21 18 18 16 17 16 16 18 20 18 18 17 17 14 9 12 13 17 17 14
28 24 23 23 23 22 20 18 17 16 17 17 17 18 19 20 21 21 22 23 25 26 26 25 22 19 19 20 16 18 20 26 25 21 19 16 16 11 14 17 18 16 15
34 29 25 24 24 25 20 19 19 16 16 13 14 15 16 19 21 22 23 22 24 25 27 27 25 23 22 22 19 19 20 25 27 23 23 20 16 12 16 18 17 17 19
36 35 32 27 25 25 24 23 22 18 17 17 16 15 17 19 21 21 22 22 22 24 21 24 27 25 23 23 21 21 21 26 29 23 23 20 16 13 17 19 19 19 21
26 35 40 34 30 27 25 24 24 23 23 22 19 19 17 19 21 21 23 24 24 24 21 23 23 23 22 22 20 19 18 26 28 25 24 20 18 16 17 15 18 20 21
29 31 43 42 37 32 28 27 28 28 26 23 22 22 19 18 21 22 23 23 24 23 22 23 24 24 22 24 22 21 22 31 29 28 26 22 19 20 20 17 19 20 20
32 36 37 47 43 37 32 30 31 30 27 24 20 19 18 20 21 24 24 24 25 24 23 24 25 25 24 24 23 18 25 30 25 28 27 23 18 22 22 18 20 19 20
33 32 36 44 46 41 36 32 31 30 30 26 22 20 18 19 21 23 23 24 23 23 22 25 27 26 26 24 22 20 27 32 25 30 26 17 18 23 21 22 22 20 18
33 34 32 36 44 46 40 36 33 32 30 29 27 23 19 17 17 22 24 24 24 23 23 25 26 26 26 23 19 23 28 35 28 33 23 20 17 20 21 22 23 23 21
27 31 24 30 38 46 42 36 33 33 32 31 31 27 23 19 17 20 24 24 24 24 26 25 27 25 24 22 24 26 16 30 33 33 24 20 17 17 19 19 21 23 22
19 27 31 28 36 45 40 35 33 29 29 33 37 35 29 22 20 21 23 24 26 27 27 26 25 26 25 26 27 16 20 8 30 34 25 21 18 17 19 19 21 21 22
3 6 17 29 32 40 38 33 33 35 36 43 44 40 33 29 26 24 24 24 25 25 23 25 24 23 22 25 26 40 26 32 32 23 26 23 19 22 20 20 23 23 22
1 5 6 16 35 41 39 33 32 33 33 41 42 40 36 35 30 28 27 26 26 22 21 22 22 21 22 26 32 31 30 35 34 33 28 26 21 24 24 22 17 21 23
8 8 9 14 8 36 38 34 34 35 31 41 40 37 35 32 35 34 30 28 27 22 20 22 20 20 21 27 25 33 36 41 37 34 25 31 32 29 28 29 24 19 20
Wind_Direction
159 156 157 160 163 160 158 155 154 153 151 151 149 151 151 149 141 136 144 144 145 149 151 154 159 162 157 159 158 162 172 164 137 134 138 139 142 138 133 130 129 127 126
159 151 147 153 154 158 156 156 156 157 156 157 158 159 159 158 158 149 146 145 148 148 152 156 163 167 165 171 173 179 193 189 168 149 147 147 142 138 134 134 132 129 128
150 145 140 140 143 154 158 159 159 159 160 164 165 167 166 170 167 155 156 154 146 144 150 156 163 169 178 177 174 181 177 159 152 155 160 152 142 138 134 138 135 134 133
144 136 137 145 155 162 162 161 162 160 163 167 168 170 174 177 171 167 167 161 150 150 150 160 168 164 167 169 164 154 149 150 156 159 156 150 141 139 139 140 138 137 136
140 138 138 147 154 161 164 163 163 162 165 167 171 175 179 181 178 174 176 173 161 159 163 166 163 151 156 156 157 153 155 159 161 154 153 153 145 143 142 141 142 142 141
143 134 136 141 147 157 164 167 167 165 166 168 173 178 181 181 183 184 183 181 171 166 169 169 166 151 151 155 160 160 158 161 157 159 158 162 149 146 147 147 149 153 147
142 143 144 147 151 159 168 173 173 172 173 176 177 181 182 187 187 192 189 185 180 180 175 175 164 156 156 163 165 161 158 159 164 167 164 162 156 153 156 156 162 166 149
157 155 159 162 165 169 176 179 181 181 184 186 187 187 189 194 191 195 195 192 189 187 181 184 170 167 162 164 170 159 163 169 164 175 167 163 168 160 164 166 179 183 168
183 171 172 176 178 176 183 191 191 192 194 195 196 193 193 201 198 199 198 197 200 193 191 190 184 178 177 168 175 164 184 182 171 180 172 174 175 195 189 184 190 201 208
197 183 185 186 190 184 189 199 199 200 202 202 202 202 203 204 205 204 203 201 204 200 203 201 200 207 229 209 189 216 194 197 204 228 217 187 193 205 196 200 198 192 170
203 200 193 195 196 193 194 205 206 207 207 207 208 213 213 211 212 207 208 209 207 207 210 211 213 238 238 215 227 215 199 194 221 201 187 194 189 203 205 209 169 176 169
209 208 204 200 203 202 202 208 211 213 214 214 214 217 223 221 218 215 211 215 211 212 215 217 231 238 233 218 225 206 204 214 226 204 206 195 192 200 210 210 175 180 168
220 218 215 209 208 209 210 208 214 215 217 218 219 219 222 225 219 219 217 218 215 218 219 222 233 231 232 219 226 218 202 204 218 207 212 204 190 214 223 223 187 179 177
220 229 228 222 220 215 214 208 212 215 218 222 224 222 221 223 226 222 221 222 225 229 224 231 235 235 232 223 237 230 222 216 218 212 211 209 200 234 225 216 190 185 186
217 221 227 224 225 228 217 220 213 212 211 216 217 218 214 221 224 225 227 226 225 226 228 236 238 239 235 230 236 225 240 231 219 216 204 207 209 233 224 220 199 197 187
221 221 221 220 227 226 222 224 212 223 224 218 219 223 225 223 225 226 227 231 232 233 230 235 239 240 239 234 236 240 268 220 215 214 204 202 213 231 220 214 206 190 181
234 226 216 216 223 224 223 227 225 214 223 222 226 227 229 216 220 222 224 228 232 232 234 231 235 234 236 235 243 251 247 202 212 212 205 208 200 215 213 205 194 189 187
242 240 219 212 218 220 225 223 225 224 221 220 220 224 230 215 215 218 220 222 225 224 228 232 231 230 237 234 241 257 235 210 211 197 205 210 211 212 202 203 196 193 192
243 247 227 213 215 218 220 218 223 226 230 226 225 220 229 211 216 221 219 218 221 224 230 229 229 239 238 234 247 238 206 212 216 200 202 203 213 210 202 190 188 195 198
244 248 242 217 217 219 217 216 215 219 229 229 229 226 227 226 216 221 222 219 224 225 227 229 232 237 239 246 250 223 210 212 220 199 196 192 206 204 198 188 194 201 208
240 246 249 218 218 213 209 209 210 214 219 228 233 233 229 224 219 219 222 222 225 223 224 226 229 234 236 237 239 232 219 215 218 192 191 185 195 200 202 198 203 206 207
233 240 245 230 221 213 214 213 215 214 211 227 234 235 232 224 216 216 222 221 224 227 228 232 229 230 232 231 218 223 185 206 219 194 190 195 196 198 206 207 212 216 217
251 247 248 227 224 215 212 210 207 203 215 218 230 237 231 227 220 216 220 223 222 221 230 238 235 234 230 228 224 204 163 175 179 189 189 189 192 199 207 208 213 219 226
29 11 252 224 216 213 213 214 214 216 219 225 226 228 230 230 221 221 225 228 227 231 230 233 232 235 227 225 226 203 175 170 162 163 175 184 199 204 215 221 224 229 223
39 315 260 218 213 206 208 218 229 224 231 232 232 229 231 224 219 222 228 227 232 226 224 228 228 228 218 220 215 181 176 179 177 173 178 186 189 205 215 223 234 234 228
311 308 286 263 240 226 220 216 236 234 234 228 233 233 232 221 213 220 226 229 229 226 220 224 227 220 206 216 214 192 185 180 182 183 194 199 203 207 213 220 224 223 229
Height
1491 1493 1495 1497 1499 1502 1504 1506 1509 1512 1513 1516 1518 1521 1523 1525 1527 1528 1529 1531 1534 1534 1536 1537 1539 1540 1542 1542 1543 1544 1546 1548 1549 1551 1550 1552 1553 1553 1556 1557 1558 1560 1561
1488 1491 1494 1496 1498 1501 1503 1506 1508 1511 1513 1515 1518 1520 1522 1525 1527 1528 1530 1531 1534 1535 1536 1537 1539 1541 1542 1543 1544 1545 1546 1548 1549 1551 1552 1553 1553 1555 1557 1559 1560 1562 1563
1488 1491 1493 1496 1498 1501 1503 1505 1507 1510 1512 1515 1517 1520 1522 1524 1526 1529 1531 1532 1534 1535 1537 1538 1540 1541 1542 1543 1545 1546 1547 1549 1550 1552 1553 1553 1555 1557 1559 1560 1561 1563 1564
1488 1490 1493 1495 1498 1501 1502 1504 1507 1509 1512 1514 1516 1519 1521 1523 1526 1528 1530 1532 1533 1536 1537 1538 1540 1542 1543 1545 1546 1547 1548 1549 1551 1553 1555 1555 1557 1559 1561 1562 1564 1565 1566
1489 1491 1493 1495 1497 1500 1503 1504 1506 1508 1511 1513 1516 1518 1521 1523 1525 1527 1529 1532 1533 1536 1537 1539 1541 1543 1544 1546 1548 1548 1550 1551 1552 1554 1556 1558 1558 1561 1562 1564 1566 1567 1568
1488 1490 1492 1495 1497 1500 1502 1504 1506 1508 1510 1513 1515 1517 1520 1523 1525 1527 1529 1532 1534 1535 1537 1538 1542 1543 1545 1547 1549 1550 1551 1553 1554 1555 1557 1558 1558 1561 1563 1565 1567 1568 1569
1487 1490 1492 1494 1496 1499 1502 1504 1507 1508 1510 1512 1514 1517 1520 1522 1524 1527 1529 1530 1533 1535 1537 1539 1541 1543 1545 1547 1549 1551 1553 1554 1556 1556 1557 1559 1558 1560 1563 1566 1568 1569 1570
1486 1488 1491 1493 1496 1498 1501 1503 1506 1508 1510 1512 1514 1516 1518 1520 1523 1526 1528 1530 1532 1534 1536 1539 1541 1543 1546 1547 1551 1551 1553 1554 1556 1557 1558 1558 1556 1560 1563 1565 1568 1569 1570
1485 1487 1489 1492 1494 1495 1499 1502 1504 1506 1508 1510 1513 1515 1516 1519 1522 1524 1527 1529 1532 1533 1535 1537 1540 1542 1544 1545 1550 1552 1553 1555 1557 1558 1558 1560 1561 1562 1563 1565 1566 1568 1569
1484 1486 1487 1489 1493 1493 1497 1500 1502 1504 1507 1509 1511 1513 1515 1517 1520 1523 1526 1528 1530 1532 1535 1536 1538 1540 1543 1545 1548 1551 1552 1554 1556 1558 1558 1558 1560 1561 1563 1565 1565 1567 1568
1481 1484 1485 1487 1490 1491 1494 1498 1500 1502 1504 1506 1508 1510 1512 1515 1517 1520 1524 1526 1529 1531 1533 1535 1537 1538 1541 1544 1547 1549 1549 1552 1554 1557 1558 1558 1559 1561 1562 1563 1564 1567 1568
1478 1480 1483 1484 1487 1489 1490 1494 1497 1499 1501 1503 1505 1507 1509 1512 1515 1518 1521 1524 1526 1529 1531 1532 1535 1536 1538 1541 1545 1546 1548 1550 1553 1556 1556 1557 1559 1559 1561 1562 1565 1566 1568
1475 1478 1479 1481 1483 1485 1487 1490 1493 1496 1498 1500 1502 1504 1506 1509 1511 1514 1517 1520 1523 1525 1528 1529 1531 1533 1535 1539 1542 1545 1545 1548 1550 1553 1555 1556 1557 1559 1560 1561 1564 1565 1567
1470 1473 1476 1477 1479 1481 1484 1486 1490 1493 1495 1497 1499 1501 1503 1505 1508 1511 1513 1517 1520 1522 1524 1526 1527 1530 1533 1536 1539 1542 1544 1545 1546 1549 1552 1554 1556 1558 1559 1561 1563 1564 1565
1464 1466 1470 1473 1475 1477 1479 1482 1485 1488 1491 1493 1495 1497 1500 1502 1504 1507 1509 1514 1516 1519 1520 1522 1524 1526 1529 1532 1535 1538 1541 1542 1543 1545 1549 1552 1554 1556 1557 1560 1561 1562 1565
1458 1461 1463 1466 1469 1472 1475 1477 1481 1483 1486 1488 1491 1493 1495 1498 1501 1503 1506 1509 1512 1515 1517 1518 1520 1523 1525 1528 1531 1534 1534 1535 1538 1541 1546 1549 1551 1553 1555 1557 1558 1561 1564
1453 1454 1456 1461 1464 1466 1469 1472 1475 1480 1481 1484 1486 1489 1491 1494 1497 1500 1502 1505 1508 1511 1514 1515 1517 1520 1522 1524 1527 1529 1531 1532 1535 1538 1543 1546 1549 1551 1553 1555 1557 1560 1562
1451 1449 1449 1454 1457 1461 1463 1467 1470 1475 1478 1481 1484 1485 1487 1489 1492 1495 1497 1501 1503 1506 1510 1512 1513 1516 1518 1520 1523 1524 1525 1529 1531 1535 1541 1543 1546 1548 1550 1552 1555 1558 1561
1445 1446 1444 1446 1450 1455 1459 1461 1465 1470 1474 1477 1480 1482 1482 1484 1488 1491 1493 1495 1498 1502 1504 1507 1509 1512 1514 1516 1518 1521 1521 1524 1526 1532 1537 1540 1543 1545 1547 1550 1553 1557 1559
1439 1440 1439 1441 1444 1449 1453 1457 1461 1466 1469 1472 1474 1477 1478 1480 1483 1486 1489 1492 1494 1496 1499 1503 1505 1507 1509 1511 1514 1517 1519 1520 1522 1530 1534 1537 1540 1543 1545 1547 1551 1554 1558
1433 1434 1433 1437 1440 1444 1447 1451 1454 1457 1462 1466 1468 1473 1474 1476 1479 1482 1485 1488 1489 1491 1494 1498 1501 1503 1505 1507 1511 1513 1515 1516 1520 1525 1531 1533 1537 1541 1543 1547 1549 1552 1555
1427 1429 1428 1431 1434 1438 1442 1445 1448 1451 1458 1463 1465 1468 1469 1472 1475 1477 1479 1483 1485 1487 1490 1492 1494 1497 1500 1502 1504 1507 1509 1512 1519 1524 1528 1531 1535 1538 1541 1544 1547 1550 1553
1422 1424 1422 1425 1429 1433 1438 1442 1446 1450 1457 1459 1460 1462 1464 1467 1470 1472 1475 1478 1480 1482 1484 1486 1489 1492 1493 1496 1498 1501 1499 1504 1513 1520 1525 1528 1532 1535 1539 1542 1545 1547 1550
1417 1419 1419 1416 1421 1427 1432 1435 1437 1439 1444 1449 1453 1457 1460 1463 1464 1467 1469 1473 1476 1477 1479 1481 1484 1486 1488 1490 1492 1489 1496 1500 1506 1515 1523 1526 1530 1533 1536 1539 1542 1543 1546
1411 1412 1414 1420 1419 1418 1423 1427 1429 1432 1439 1442 1448 1454 1457 1460 1460 1461 1464 1467 1470 1471 1474 1476 1479 1480 1483 1485 1486 1487 1494 1498 1504 1509 1516 1522 1526 1530 1533 1536 1538 1539 1542
1410 1411 1412 1412 1417 1420 1420 1420 1422 1425 1431 1435 1441 1446 1450 1453 1456 1457 1459 1462 1464 1466 1469 1472 1474 1476 1479 1482 1485 1486 1489 1492 1499 1506 1512 1517 1522 1526 1529 1532 1534 1536 1539